Location: *
(49.3500°N, 12.6000°E)
Time: 00:59:14
(UTC+00:00)

ATLAS 5 CENTAUR R/B - Pass Details

Date: 18 October 2019
Orbit: 557 x 1102 km, 63.4° (Epoch: 11 November)

Event Time Altitude Azimuth Distance (km) Brightness Sun altitude
Rises 17:41:44 0° 252° (WSW) 2,823 6.3 -15.0°
Reaches altitude 10° 17:44:02 10° 261° (W) 1,975 5.5 -15.4°
Maximum altitude 17:48:06 34° 328° (NNW) 1,090 3.1 -16.0°
Drops below altitude 10° 17:52:43 10° 34° (NNE) 2,244 4.1 -16.8°
Enters shadow 17:53:16 - 36° (NE) 2,443 4.3 -16.9°
